Powrót do katalogu

THORAD AGENA D DEB

AktywnyPO
NORAD 17720·DEBRIS·🇺🇸 United States

Wystrzelony Apr 8, 1970 z Vandenberg Space Force Base

Loading…

Następne Przeloty (najbliższe 24 godziny)

TLE

ŚwieżeSource: Space-Track

Epoka: Sep 14, 2026, 05:13 UTC

1 17720U 70025PJ  26257.21781622  .00002799  00000-0  12198-2 0  9992
2 17720  99.6064 163.0119 0030754 312.2243 200.4449 14.24647701118526

Śledź THORAD AGENA D DEB w czasie rzeczywistym z AllMySat

Download on the App Store